Header for Extended Forecast Station List Page

Search by: ID | Name | Date | Parm | Value | Avg | % Avg
Sort by: ID | Name | Date | Parm | Value | Avg | % Avg

Enter search or view all records.

Click on id for station plot
#IDNameDateParmValueAvg% Avg
0HWRI1BIG LOST-AT HOWELL RANCH NEAR CHILLY03-02-2015DISCHARGE (KAF)9412377
1MACI1BIG LOST-MACKAY RESERVOIR NEAR MACKAY03-02-2015INFLOW (KAF)8412567
2HALI1BIG WOOD-AT HAILEY03-02-2015DISCHARGE (KAF)190190100
3MAGI1BIG WOOD-MAGIC DAM03-02-2015INFLOW (KAF)21223092
4BITM8BITTERROOT-NEAR MISSOULA03-02-2015DISCHARGE (KAF)990107992
5BONM8BLACKFOOT-NEAR BONNER03-02-2015DISCHARGE (KAF)63270390
6BIGI1BOISE-AT GLENWOOD BRIDGE03-02-2015DISCHARGE (KAF)550379145
7LUCI1BOISE-LUCKY PEAK DAM03-02-2015INFLOW (KAF)1002MM
8PARI1BOISE-NEAR PARMA03-02-2015DISCHARGE (KAF)554424131
9HOTI1BRUNEAU-NEAR HOT SPRINGS03-02-2015DISCHARGE (KAF)9917656
10BULO3BULLY CREEK-BULLY CREEK DAM03-02-2015INFLOW (KAF)6775
11BUDW1BUMPING-BUMPING LAKE DAM03-02-2015INFLOW (KAF)7110368
12CHDW1CHELAN-LAKE CHELAN DAM03-02-2015INFLOW (KAF)76380595
13ABOM8CLARK FORK-ABOVE MISSOULA03-02-2015DISCHARGE (KAF)1148127190
14DLGM8CLARK FORK-AT DEER LODGE03-02-2015DISCHARGE (KAF)568566
15SRGM8CLARK FORK-AT ST REGIS03-02-2015DISCHARGE (KAF)2787322286
16BELM8CLARK FORK-BELOW MISSOULA03-02-2015DISCHARGE (KAF)2139238790
17CABI1CLARK FORK-CABINET GORGE DAM03-02-2015INFLOW (KAF)8203849897
18NOXM8CLARK FORK-NOXON RAPIDS DAM03-02-2015INFLOW (KAF)7425808492
19DRMM8CLARK FORK-NR DRUMMOND03-02-2015DISCHARGE (KAF)204MM
20CLUW1CLE ELUM-CLE ELUM LAKE03-02-2015INFLOW (KAF)21334262
21ORFI1CLEARWATER-AT OROFINO03-02-2015DISCHARGE (KAF)3982438791
22SPDI1CLEARWATER-AT SPALDING03-02-2015DISCHARGE (KAF)5472674781
23COEI1COEUR D ALENE-COEUR D ALENE LAKE03-02-2015INFLOW (KAF)1719280261
24CIBW1COLUMBIA-AT INTL BOUNDARY03-02-2015DISCHARGE (KAF)23331MM
25BONO3COLUMBIA-BONNEVILLE DAM03-02-2015INFLOW (KAF)45697MM
26CHJW1COLUMBIA-CHIEF JOSEPH DAM03-02-2015INFLOW (KAF)241312889284
27GCDW1COLUMBIA-GRAND COULEE DAM03-02-2015INFLOW (KAF)268073397779
28JDAO3COLUMBIA-JOHN DAY DAM03-02-2015INFLOW (KAF)446366016974
29MCDW1COLUMBIA-MCNARY DAM03-02-2015INFLOW (KAF)428935774874
30PRWW1COLUMBIA-PRIEST RAPIDS DAM03-02-2015INFLOW (KAF)274793582977
31RRHW1COLUMBIA-ROCKY REACH DAM03-02-2015INFLOW (KAF)267063148685
32TDAO3COLUMBIA-THE DALLES DAM03-02-2015INFLOW (KAF)449085623180
33WANW1COLUMBIA-WANAPUM DAM03-02-2015INFLOW (KAF)276073519678
34WELW1COLUMBIA-WELLS DAM03-02-2015INFLOW (KAF)259963102984
35DEDI1DEADWOOD-NEAR LOWMAN03-02-2015INFLOW (KAF)9311979
36MODO3DESCHUTES-AT MOODY NR BIGGS03-02-2015DISCHARGE (KAF)1271148586
37ARDW1ENTIAT-NEAR ARDENVOIR03-02-2015DISCHARGE (KAF)16016398
38CHEI1FALL RIVER-NEAR CHESTER03-02-2015DISCHARGE (KAF)30131496
39CFMM8FLATHEAD-AT COLUMBIA FALLS03-02-2015DISCHARGE (KAF)3490359997
40KERM8FLATHEAD-KERR DAM03-02-2015INFLOW (KAF)4320454795
41TRYO3GRANDE RONDE-TROY03-02-2015DISCHARGE (KAF)670127153
42REXI1HENRYS FORK-AT REXBURG03-02-2015DISCHARGE (KAF)68472794
43ANTI1HENRYS FORK-AT ST. ANTHONY03-02-2015DISCHARGE (KAF)55561990
44IPDI1HENRYS FORK-ISLAND PARK DAM03-02-2015INFLOW (KAF)14018675
45HODO3HOOD-NEAR TUCKER BRIDGE03-02-2015DISCHARGE (KAF)18925774
46SERO3JOHN DAY-AT SERVICE CK03-02-2015DISCHARGE (KAF)46788353
47KADW1KACHESS-KACHESS DAM03-02-2015INFLOW (KAF)6210460
48LAUW1KETTLE-AT LAURIER03-02-2015DISCHARGE (KAF)16001578101
49PITW1KLICKITAT-NEAR PITT03-02-2015DISCHARGE (KAF)35951969
50BFEI1KOOTENAI-AT BONNERS FERRY03-02-2015STAGE (FT)MMM
51LEOI1KOOTENAI-AT LEONIA03-02-2015DISCHARGE (KAF)3580428084
52LYDM8KOOTENAI-LIBBY DAM03-02-2015INFLOW (KAF)3490437480
53LWRI1LITTLE WOOD-LITTLE WOOD DAM03-02-2015INFLOW (KAF)497268
54BERO3MALHEUR-AGENCY VALLEY DAM03-02-2015INFLOW (KAF)425084
55VALO3MALHEUR-NEAR VALE03-02-2015DISCHARGE (KAF)5598
56WRMO3MALHEUR-WARM SPRINGS DAM03-02-2015INFLOW (KAF)306446
57MYKO3MCKAY CREEK-NEAR PILOT ROCK03-02-2015DISCHARGE (KAF)3232101
58PATW1METHOW-NEAR PATEROS03-02-2015DISCHARGE (KAF)70372397
59WGCM8MF FLATHEAD-NEAR WEST GLACIER03-02-2015DISCHARGE (KAF)1158130289
60CLFW1NACHES-NEAR CLIFFDEL03-02-2015DISCHARGE (KAF)21933964
61NACW1NACHES-NEAR NACHES03-02-2015DISCHARGE (KAF)32544074
62DWRI1NF CLEARWATER-DWORSHAK DAM03-02-2015INFLOW (KAF)1901266271
63FCFM8NF FLATHEAD-NEAR COLUMBIA FALLS03-02-2015DISCHARGE (KAF)1175132789
64MONO3NF JOHN DAY-AT MONUMENT03-02-2015DISCHARGE (KAF)35061657
65CSDI1NF PAYETTE-CASCADE DAM03-02-2015INFLOW (KAF)34948173
66TONW1OKANOGAN-NEAR TONASKET03-02-2015DISCHARGE (KAF)1144127889
67OWYO3OWYHEE-BELOW OWYHEE DAM03-02-2015INFLOW (KAF)12835536
68EMMI1PAYETTE-NEAR EMMETT03-02-2015DISCHARGE (KAF)830119370
69ALFW1PEND OREILLE-ALBENI FALLS DAM03-02-2015INFLOW (KAF)92901017191
70HOPI1PEND OREILLE-PEND OREILLE LAKE NR HOPE03-02-2015LAKE ELEVATION (FT)MMM
71PIHI1PORTNEUF-AT POCATELLO03-02-2015DISCHARGE (KAF)499651
72PRTI1PRIEST-NEAR PRIEST RIVER03-02-2015DISCHARGE (KAF)71575794
73RCCM8ROCK CREEK-NEAR CLINTON03-02-2015DISCHARGE (KAF)269217124
74WHBI1SALMON-AT WHITEBIRD03-02-2015DISCHARGE (KAF)4243503184
75ARAI1SF BOISE-ANDERSON RANCH DAM03-02-2015INFLOW (KAF)42747790
76HHWM8SF FLATHEAD-HUNGRY HORSE DAM03-02-2015INFLOW (KAF)1589171293
77PLDI1SF SNAKE-PALISADES DAM03-02-2015INFLOW (KAF)24072281106
78SIFI1SNAKE-AB EAGLE ROCK NR IDAHO FALLS03-02-2015DISCHARGE (KAF)23522118111
79AFRI1SNAKE-AMERICAN FALLS RESERVOIR03-02-2015INFLOW (KAF)2343240198
80SNAI1SNAKE-AT BLACKFOOT03-02-2015DISCHARGE (KAF)18211771103
81MILI1SNAKE-AT MILNER03-02-2015DISCHARGE (KAF)19058333
82WEII1SNAKE-AT WEISER03-02-2015DISCHARGE (KAF)3623532568
83SWAI1SNAKE-BELOW SWAN FALLS03-02-2015DISCHARGE (KAF)1792262468
84BRNI1SNAKE-BROWNLEE DAM03-02-2015INFLOW (KAF)4078578271
85IHDW1SNAKE-ICE HARBOR DAM03-02-2015INFLOW (KAF)145711991773
86JLKW4SNAKE-JACKSON LAKE AT DAM03-02-2015INFLOW (KAF)60962797
87LGSW1SNAKE-LITTLE GOOSE DAM03-02-2015INFLOW (KAF)144881986673
88LGDW1SNAKE-LOWER GRANITE DAM03-02-2015INFLOW (KAF)144781984673
89LMNW1SNAKE-LOWER MONUMENTAL DAM03-02-2015INFLOW (KAF)145602003773
90ALPW4SNAKE-NEAR ALPINE03-02-2015DISCHARGE (KAF)16231516107
91ANAW1SNAKE-NEAR ANATONE03-02-2015DISCHARGE (KAF)90061310169
92BFTI1SNAKE-NEAR BLACKFOOT03-02-2015DISCHARGE (KAF)17811736103
93HEII1SNAKE-NEAR HEISE03-02-2015DISCHARGE (KAF)25072192114
94JKSW4SNAKE-NEAR JACKSON03-02-2015DISCHARGE (KAF)12311161106
95SHYI1SNAKE-NEAR SHELLEY03-02-2015DISCHARGE (KAF)21692071105
96LLKW1SPOKANE-AT LONGLAKE03-02-2015INFLOW (KAF)1797333654
97SPOW1SPOKANE-AT SPOKANE03-02-2015DISCHARGE (KAF)1612MM
98SJMI1ST JOE-AT ST MARIES03-02-2015STAGE (FT)MMM
99SATI1ST MARIES-NEAR SANTA03-02-2015DISCHARGE (KAF)5114934
100STRM8ST. REGIS-NEAR ST. REGIS03-02-2015DISCHARGE (KAF)19824681
101TNAW1TEANAWAY-BELOW FORKS03-02-2015DISCHARGE (KAF)6613150
102TEAI1TETON-NEAR ST. ANTHONY03-02-2015DISCHARGE (KAF)333285117
103RILW1TIETON-RIMROCK LAKE NEAR RIMROCK03-02-2015INFLOW (KAF)11016965
104PDTO3UMATILLA-AT PENDLETON03-02-2015DISCHARGE (KAF)10617361
105GIBO3UMATILLA-NEAR GIBBON03-02-2015DISCHARGE (KAF)587974
106UMAO3UMATILLA-NEAR UMATILLA03-02-2015DISCHARGE (KAF)7512858
107TCHW1WALLA WALLA-NEAR TOUCHET03-02-2015DISCHARGE (KAF)10916765
108WSRI1WEISER-NEAR WEISER03-02-2015DISCHARGE (KAF)27443064
109PESW1WENATCHEE-AT PESHASTIN03-02-2015DISCHARGE (KAF)894121773
110UNDW1WHITE SALMON-NEAR UNDERWOOD03-02-2015DISCHARGE (KAF)22534765
111RIDI1WILLOW CREEK-RIRIE DAM03-02-2015INFLOW (KAF)5044115
112EASW1YAKIMA-AT EASTON03-02-2015DISCHARGE (KAF)11397117
113KIOW1YAKIMA-AT KIONA03-02-2015DISCHARGE (KAF)59798661
114UMTW1YAKIMA-AT UMTANUM03-02-2015DISCHARGE (KAF)58866888
115KEDW1YAKIMA-KEECHELUS LAKE03-02-2015INFLOW (KAF)6410959
116PARW1YAKIMA-NEAR PARKER03-02-2015DISCHARGE (KAF)39460066